Skip Page Navigation
NASA JPL Caltech
NASA Logo - Jet Propulsion Laboratory + View the NASA Portal
+ Center for Near-Earth Object Studies
JPL Home Earth Solar System Stars & Galaxies Technology
JPL Solar System Dynamics
BODIES ORBITS EPHEMERIDES TOOLS PHYSICAL DATA DISCOVERY FAQ SITE MAP
JPL Small-Body Database Browser
Search: [ help ]  
67066 (1999 YO)
Classification: Inner Main-belt Asteroid          SPK-ID: 2067066
Ephemeris | Orbit Diagram | Orbital Elements | Mission Design | Physical Parameters | Discovery Circumstances ]

[ show orbit diagram ]
Orbital Elements at Epoch 2459200.5 (2020-Dec-17.0) TDB
Reference: JPL 22 (heliocentric ecliptic J2000)
 Element Value Uncertainty (1-sigma)   Units 
e .1317943867639564 8.1728e-08  
a 1.921134302111552 6.8126e-09 au
q 1.667939584873558 1.5729e-07 au
i 25.0806628956245 8.1476e-06 deg
node 122.0894609551433 1.7038e-05 deg
peri 257.0114399836472 3.1209e-05 deg
M 14.99322536508257 2.5617e-05 deg
tp 2459159.993232729080
(2020-Nov-06.49323273)
6.9196e-05 TDB
period 972.6016825900609
2.66
5.1735e-06
1.416e-08
d
yr
n .3701412473822908 1.9689e-09 deg/d
Q 2.174329019349545 7.7105e-09 au
  Orbit Determination Parameters
   # obs. used (total)      601  
   data-arc span      14705 days (40.26 yr)  
   first obs. used      1980-10-09  
   last obs. used      2021-01-12  
   planetary ephem.      DE441  
   SB-pert. ephem.      SB441-N16  
   condition code      0  
   norm. resid. RMS      .55843  
   source      ORB  
   producer      Otto Matic  
   solution date      2021-Apr-13 12:27:04  

Additional Information
 Earth MOID = .770433 au 
 Jupiter MOID = 3.27128 au 
 T_jup = 3.800 
[ show covariance matrix ]

Ephemeris | Orbit Diagram | Orbital Elements | Mission Design | Physical Parameters | Discovery Circumstances ]

Physical Parameter Table
Parameter Symbol Value Units Sigma Reference Notes
absolute magnitude H 16.04   n/a E2021B10  

67066 (1999 YO)          Discovered 1999-Dec-16 by LINEAR at Socorro
Reference: 20030910/Numbers.arcLast Updated: 2004-04-19

Alternate Designations
 1999 YO = 2003 DX9 
Ephemeris | Orbit Diagram | Orbital Elements | Mission Design | Physical Parameters | Discovery Circumstances ]
ABOUT SSD CREDITS/AWARDS PRIVACY/COPYRIGHT GLOSSARY LINKS
FirstGov 2021-Jun-16 21:34 UT
(server date/time)  
NASA Home Page
Site Manager:   Ryan S. Park
Webmaster  Alan B. Chamberlin